| time (UTC) | temp F | wind direction | speed knots | gust knots | rain 1hr in | rain 24hr in | rain mn in | humidity % | barometer mb |
| 20260504220837 | 81 | 200 | 1.7 | 5.2 | 0.00 | 0.00 | 0.00 | 64 | 1009.8 |
| 20260504220331 | 81 | 170 | 0.0 | 5.2 | 0.00 | 0.00 | 0.00 | 64 | 1009.8 |
| 20260504215825 | 81 | 163 | 1.7 | 5.2 | 0.00 | 0.00 | 0.00 | 63 | 1010.2 |
| 20260504215319 | 81 | 176 | 0.9 | 5.2 | 0.00 | 0.00 | 0.00 | 63 | 1009.8 |
| 20260504214816 | 81 | 159 | 1.7 | 3.5 | 0.00 | 0.00 | 0.00 | 63 | 1010.2 |
| 20260504214310 | 82 | 192 | 0.0 | 8.7 | 0.00 | 0.00 | 0.00 | 62 | 1009.8 |
| 20260504213803 | 82 | 215 | 5.2 | 8.7 | 0.00 | 0.00 | 0.00 | 62 | 1010.2 |
| 20260504213256 | 82 | 139 | 0.0 | 6.1 | 0.00 | 0.00 | 0.00 | 61 | 1010.2 |
| 20260504212754 | 82 | 165 | 0.0 | 6.1 | 0.00 | 0.00 | 0.00 | 61 | 1010.2 |
| 20260504212247 | 82 | 238 | 1.7 | 6.1 | 0.00 | 0.00 | 0.00 | 61 | 1010.2 |
| 20260504211741 | 83 | 167 | 3.5 | 6.1 | 0.00 | 0.00 | 0.00 | 60 | 1010.2 |
| 20260504211235 | 83 | 187 | 1.7 | 5.2 | 0.00 | 0.00 | 0.00 | 60 | 1010.5 |
| 20260504210949 | 83 | 103 | 0.9 | 5.2 | 0.00 | 0.00 | 0.00 | 59 | 1010.2 |
| 20260504210219 | 84 | 112 | 0.0 | 6.1 | 0.00 | 0.00 | 0.00 | 59 | 1010.2 |
| 20260504205711 | 84 | 162 | 1.7 | 6.1 | 0.00 | 0.00 | 0.00 | 58 | 1010.5 |
| 20260504205205 | 85 | 162 | 0.9 | 2.6 | 0.00 | 0.00 | 0.00 | 57 | 1010.5 |
| 20260504204704 | 85 | 40 | 0.9 | 2.6 | 0.00 | 0.00 | 0.00 | 57 | 1010.5 |
| 20260504204154 | 85 | 141 | 0.9 | 3.5 | 0.00 | 0.00 | 0.00 | 57 | 1010.5 |
| 20260504203646 | 85 | 179 | 0.0 | 6.1 | 0.00 | 0.00 | 0.00 | 55 | 1010.5 |
| 20260504203400 | 83 | 118 | 0.0 | 6.1 | 0.00 | 0.00 | 0.00 | 58 | 1010.5 |
| 20260504202636 | 84 | 164 | 2.6 | 6.1 | 0.00 | 0.00 | 0.00 | 57 | 1010.8 |
| 20260504202129 | 83 | 174 | 2.6 | 6.1 | 0.00 | 0.00 | 0.00 | 56 | 1010.8 |
| 20260504201624 | 83 | 183 | 0.0 | 5.2 | 0.00 | 0.00 | 0.00 | 58 | 1010.8 |
| 20260504201114 | 85 | 135 | 1.7 | 1.7 | 0.00 | 0.00 | 0.00 | 57 | 1011.2 |
| 20260504200611 | 84 | 131 | 0.0 | 6.1 | 0.00 | 0.00 | 0.00 | 56 | 1011.2 |
| 20260504200328 | 83 | 154 | 3.5 | 8.7 | 0.00 | 0.00 | 0.00 | 57 | 1011.2 |
| 20260504195557 | 85 | 134 | 0.0 | 8.7 | 0.00 | 0.00 | 0.00 | 57 | 1011.2 |
| 20260504195050 | 85 | 221 | 2.6 | 5.2 | 0.00 | 0.00 | 0.00 | 56 | 1011.2 |
| 20260504194548 | 85 | 155 | 1.7 | 5.2 | 0.00 | 0.00 | 0.00 | 54 | 1011.5 |
| 20260504194041 | 85 | 123 | 0.0 | 7.0 | 0.00 | 0.00 | 0.00 | 53 | 1011.5 |
| 20260504193535 | 86 | 166 | 3.5 | 7.0 | 0.00 | 0.00 | 0.00 | 54 | 1011.5 |
| 20260504193250 | 86 | 163 | 0.0 | 5.2 | 0.00 | 0.00 | 0.00 | 53 | 1011.5 |
| 20260504192526 | 85 | 124 | 0.0 | 6.1 | 0.00 | 0.00 | 0.00 | 54 | 1011.5 |
| 20260504192239 | 85 | 243 | 0.9 | 6.1 | 0.00 | 0.00 | 0.00 | 53 | 1011.9 |
| 20260504191511 | 85 | 149 | 3.5 | 5.2 | 0.00 | 0.00 | 0.00 | 54 | 1011.9 |
| 20260504191228 | 85 | 198 | 1.7 | 7.8 | 0.00 | 0.00 | 0.00 | 53 | 1011.9 |
| 20260504185953 | 83 | 174 | 0.0 | 5.2 | 0.00 | 0.00 | 0.00 | 55 | 1011.9 |
| 20260504185715 | 85 | 183 | 0.9 | 5.2 | 0.00 | 0.00 | 0.00 | 55 | 1011.9 |
| 20260504184937 | 85 | 141 | 0.0 | 5.2 | 0.00 | 0.00 | 0.00 | 55 | 1012.2 |
| 20260504184653 | 85 | 207 | 0.0 | 3.5 | 0.00 | 0.00 | 0.00 | 53 | 1012.2 |
| 20260504183931 | 85 | 172 | 1.7 | 3.5 | 0.00 | 0.00 | 0.00 | 54 | 1012.2 |
| 20260504183423 | 85 | 166 | 0.0 | 8.7 | 0.00 | 0.00 | 0.00 | 54 | 1012.2 |
| 20260504182917 | 83 | 261 | 1.7 | 8.7 | 0.00 | 0.00 | 0.00 | 55 | 1011.9 |
| 20260504182412 | 84 | 111 | 1.7 | 6.1 | 0.00 | 0.00 | 0.00 | 55 | 1011.9 |
| 20260504181905 | 83 | 152 | 1.7 | 6.1 | 0.00 | 0.00 | 0.00 | 56 | 1012.2 |
| 20260504181357 | 84 | 120 | 0.0 | 3.5 | 0.00 | 0.00 | 0.00 | 56 | 1012.5 |
| 20260504181113 | 84 | 155 | 0.9 | 5.2 | 0.00 | 0.00 | 0.00 | 55 | 1012.5 |
| 20260504180322 | 83 | 145 | 0.0 | 5.2 | 0.00 | 0.00 | 0.00 | 55 | 1012.5 |
| 20260504175815 | 83 | 132 | 0.0 | 7.8 | 0.00 | 0.00 | 0.00 | 56 | 1012.9 |
| 20260504175307 | 84 | 148 | 0.9 | 7.8 | 0.00 | 0.00 | 0.00 | 54 | 1012.5 |
| 20260504175020 | 83 | 201 | 1.7 | 6.1 | 0.00 | 0.00 | 0.00 | 56 | 1012.9 |
| 20260504174257 | 82 | 166 | 1.7 | 8.7 | 0.00 | 0.00 | 0.00 | 58 | 1012.9 |
| 20260504173751 | 82 | 114 | 3.5 | 8.7 | 0.00 | 0.00 | 0.00 | 57 | 1012.9 |
| 20260504173507 | 82 | 161 | 4.3 | 7.0 | 0.00 | 0.00 | 0.00 | 56 | 1012.9 |
| 20260504172735 | 83 | 177 | 0.0 | 5.2 | 0.00 | 0.00 | 0.00 | 55 | 1012.9 |
| 20260504172235 | 83 | 345 | 0.0 | 3.5 | 0.00 | 0.00 | 0.00 | 55 | 1012.9 |
| 20260504171728 | 83 | 181 | 0.0 | 3.5 | 0.00 | 0.00 | 0.00 | 54 | 1013.2 |
| 20260504171436 | 82 | 91 | 0.0 | 5.2 | 0.00 | 0.00 | 0.00 | 56 | 1013.2 |
| 20260504170935 | 82 | 126 | 2.6 | 5.2 | 0.00 | 0.00 | 0.00 | 57 | 1013.2 |
| 20260504170212 | 83 | 176 | 0.9 | 5.2 | 0.00 | 0.00 | 0.00 | 57 | 1013.6 |
| 20260504160108 | 79 | 139 | 3.5 | 6.1 | 0.00 | 0.00 | 0.00 | 61 | 1014.2 |
| 20260504151007 | 77 | 188 | 0.0 | 7.0 | 0.00 | 0.00 | 0.00 | 63 | 1014.2 |
| 20260504150457 | 77 | 328 | 0.9 | 7.8 | 0.00 | 0.00 | 0.00 | 63 | 1014.2 |
| 20260504140849 | 72 | 160 | 0.0 | 0.9 | 0.00 | 0.00 | 0.00 | 66 | 1014.2 |
| 20260504140600 | 72 | 74 | 0.0 | 1.7 | 0.00 | 0.00 | 0.00 | 67 | 1014.2 |
| 20260504130751 | 0 | 0.0 | 0.0 | 0.00 | 0.00 | 0.00 | 1014.2 | ||
| 20260504130247 | 0 | 0.0 | 0.0 | 0.00 | 0.00 | 0.00 | 1014.2 | ||
| 20260504120120 | 0 | 0.0 | 0.0 | 0.00 | 0.00 | 0.00 | 1013.9 | ||
| 20260504110534 | 0 | 0.0 | 0.0 | 0.00 | 0.00 | 0.00 | 1013.9 | ||
| 20260504100428 | 0 | 0.0 | 0.0 | 0.00 | 0.00 | 0.00 | 1013.9 | ||
| 20260504100144 | 0 | 0.0 | 0.0 | 0.00 | 0.00 | 0.00 | 1014.2 | ||
| 20260504082007 | 0 | 0.0 | 0.0 | 0.00 | 0.00 | 0.00 | 1014.6 | ||
| 20260504081240 | 0 | 0.0 | 0.0 | 0.00 | 0.00 | 0.00 | 1014.6 | ||
| 20260504080733 | 0 | 0.0 | 0.0 | 0.00 | 0.00 | 0.00 | 1014.9 | ||
| 20260504080227 | 0 | 0.0 | 0.0 | 0.00 | 0.00 | 0.00 | 1014.9 | ||
| 20260504070120 | 0 | 0.0 | 0.0 | 0.00 | 0.00 | 0.00 | 1015.9 | ||
| 20260504050436 | 0 | 0.0 | 0.0 | 0.00 | 0.00 | 0.00 | 1016.6 | ||
| 20260504045925 | 0 | 0.0 | 0.0 | 0.00 | 0.00 | 0.00 | 1016.6 | ||
| 20260504045419 | 0 | 0.0 | 0.0 | 0.00 | 0.00 | 0.00 | 1016.6 | ||
| 20260504044916 | 0 | 0.0 | 0.0 | 0.00 | 0.00 | 0.00 | 1016.6 | ||
| 20260504044408 | 0 | 0.0 | 0.0 | 0.00 | 0.00 | 0.00 | 1016.6 | ||
| 20260504043908 | 0 | 0.0 | 0.0 | 0.00 | 0.00 | 0.00 | 1016.6 | ||
| 20260504043404 | 0 | 0.0 | 0.0 | 0.00 | 0.00 | 0.00 | 1016.6 | ||
| 20260504042858 | 0 | 0.0 | 0.0 | 0.00 | 0.00 | 0.00 | 1016.6 | ||
| 20260504042353 | 0 | 0.0 | 0.0 | 0.00 | 0.00 | 0.00 | 1016.6 | ||
| 20260504041340 | 0 | 0.0 | 0.0 | 0.00 | 0.00 | 0.00 | 1016.9 | ||
| 20260504040834 | 0 | 0.0 | 0.0 | 0.00 | 0.00 | 0.00 | 1016.9 | ||
| 20260504040330 | 0 | 0.0 | 0.0 | 0.00 | 0.00 | 0.00 | 1016.6 | ||
| 20260504035829 | 0 | 0.0 | 0.0 | 0.00 | 0.00 | 0.00 | 1016.9 | ||
| 20260504035547 | 0 | 0.0 | 0.0 | 0.00 | 0.00 | 0.00 | 1016.6 | ||
| 20260504034820 | 0 | 0.0 | 0.0 | 0.00 | 0.00 | 0.00 | 1016.9 | ||
| 20260504034034 | 68 | 148 | 0.0 | 0.0 | 0.00 | 0.00 | 0.00 | 63 | 1016.9 |
| 20260504033310 | 68 | 148 | 0.0 | 0.0 | 0.00 | 0.00 | 0.00 | 63 | 1016.9 |
| 20260504032803 | 68 | 148 | 0.0 | 0.0 | 0.00 | 0.00 | 0.00 | 63 | 1016.9 |
| 20260504032257 | 69 | 136 | 0.0 | 0.0 | 0.00 | 0.00 | 0.00 | 61 | 1016.9 |
| 20260504031750 | 69 | 136 | 0.0 | 0.0 | 0.00 | 0.00 | 0.00 | 61 | 1016.9 |
| 20260504031502 | 69 | 136 | 0.0 | 0.0 | 0.00 | 0.00 | 0.00 | 61 | 1016.6 |
| 20260504030733 | 0 | 0.0 | 0.0 | 0.00 | 0.00 | 0.00 | 1016.9 | ||
| 20260504030229 | 69 | 147 | 0.0 | 0.0 | 0.00 | 0.00 | 0.00 | 61 | 1016.6 |
| 20260504025728 | 69 | 136 | 0.0 | 0.0 | 0.00 | 0.00 | 0.00 | 60 | 1016.6 |
| 20260504025218 | 69 | 179 | 0.0 | 0.9 | 0.00 | 0.00 | 0.00 | 60 | 1016.6 |
| 20260504024928 | 69 | 142 | 0.0 | 0.9 | 0.00 | 0.00 | 0.00 | 60 | 1016.6 |
| 20260504024202 | 70 | 121 | 0.0 | 0.0 | 0.00 | 0.00 | 0.00 | 60 | 1016.3 |
| 20260504023703 | 70 | 121 | 0.0 | 0.0 | 0.00 | 0.00 | 0.00 | 60 | 1016.6 |
| 20260504023153 | 70 | 129 | 0.0 | 0.0 | 0.00 | 0.00 | 0.00 | 59 | 1016.3 |
| 20260504022644 | 70 | 130 | 0.0 | 0.9 | 0.00 | 0.00 | 0.00 | 59 | 1016.6 |
| 20260504022138 | 70 | 125 | 0.0 | 2.6 | 0.00 | 0.00 | 0.00 | 59 | 1016.6 |
| 20260504021636 | 71 | 132 | 0.0 | 2.6 | 0.00 | 0.00 | 0.00 | 59 | 1016.6 |
| 20260504021130 | 71 | 114 | 0.0 | 0.9 | 0.00 | 0.00 | 0.00 | 58 | 1016.3 |
| 20260504020622 | 71 | 145 | 0.0 | 3.5 | 0.00 | 0.00 | 0.00 | 57 | 1016.3 |
| 20260504020114 | 71 | 164 | 2.6 | 3.5 | 0.00 | 0.00 | 0.00 | 56 | 1016.3 |
| 20260504015616 | 72 | 141 | 0.0 | 2.6 | 0.00 | 0.00 | 0.00 | 56 | 1016.3 |
| 20260504015106 | 72 | 150 | 0.0 | 0.9 | 0.00 | 0.00 | 0.00 | 55 | 1016.3 |
| 20260504014557 | 72 | 136 | 0.0 | 1.7 | 0.00 | 0.00 | 0.00 | 56 | 1016.3 |
| 20260504014051 | 72 | 128 | 0.0 | 1.7 | 0.00 | 0.00 | 0.00 | 55 | 1016.3 |
| 20260504013549 | 72 | 119 | 0.0 | 1.7 | 0.00 | 0.00 | 0.00 | 55 | 1016.3 |
| 20260504013042 | 73 | 142 | 0.0 | 2.6 | 0.00 | 0.00 | 0.00 | 54 | 1016.3 |
| 20260504012757 | 73 | 142 | 0.0 | 2.6 | 0.00 | 0.00 | 0.00 | 53 | 1016.3 |
| 20260504012027 | 73 | 136 | 0.0 | 0.0 | 0.00 | 0.00 | 0.00 | 54 | 1016.3 |
| 20260504011526 | 73 | 129 | 0.0 | 0.9 | 0.00 | 0.00 | 0.00 | 52 | 1015.9 |
| 20260504011020 | 73 | 126 | 0.0 | 2.6 | 0.00 | 0.00 | 0.00 | 52 | 1015.9 |
| 20260504010731 | 74 | 100 | 0.0 | 2.6 | 0.00 | 0.00 | 0.00 | 51 | 1016.3 |
| 20260504010002 | 74 | 101 | 0.0 | 2.6 | 0.00 | 0.00 | 0.00 | 52 | 1016.3 |
| 20260504005503 | 74 | 205 | 0.0 | 0.9 | 0.00 | 0.00 | 0.00 | 50 | 1015.9 |
| 20260504005217 | 74 | 111 | 0.0 | 2.6 | 0.00 | 0.00 | 0.00 | 50 | 1015.9 |
| 20260504004446 | 75 | 159 | 0.0 | 2.6 | 0.00 | 0.00 | 0.00 | 49 | 1015.9 |
| 20260504003941 | 75 | 164 | 0.0 | 1.7 | 0.00 | 0.00 | 0.00 | 49 | 1016.3 |
| 20260504003658 | 75 | 151 | 0.0 | 1.7 | 0.00 | 0.00 | 0.00 | 49 | 1015.9 |
| 20260504002932 | 76 | 124 | 0.0 | 1.7 | 0.00 | 0.00 | 0.00 | 49 | 1015.9 |
| 20260504002426 | 76 | 137 | 0.0 | 1.7 | 0.00 | 0.00 | 0.00 | 47 | 1015.9 |
| 20260504001918 | 76 | 142 | 0.0 | 1.7 | 0.00 | 0.00 | 0.00 | 48 | 1015.9 |
| 20260504001415 | 77 | 131 | 0.0 | 0.9 | 0.00 | 0.00 | 0.00 | 46 | 1015.9 |
| 20260504001135 | 78 | 157 | 0.0 | 3.5 | 0.00 | 0.00 | 0.00 | 46 | 1015.9 |
| 20260504000401 | 78 | 147 | 0.0 | 3.5 | 0.00 | 0.00 | 0.00 | 45 | 1015.9 |
| 20260503235852 | 78 | 139 | 0.0 | 3.5 | 0.00 | 0.00 | 0.00 | 45 | 1016.3 |
| 20260503235351 | 78 | 179 | 0.0 | 6.1 | 0.00 | 0.00 | 0.00 | 45 | 1016.3 |
| 20260503234842 | 78 | 125 | 0.0 | 6.1 | 0.00 | 0.00 | 0.00 | 46 | 1016.3 |
| 20260503234334 | 78 | 135 | 0.0 | 5.2 | 0.00 | 0.00 | 0.00 | 47 | 1016.3 |
| 20260503233827 | 79 | 190 | 1.7 | 5.2 | 0.00 | 0.00 | 0.00 | 44 | 1016.3 |
| 20260503233325 | 79 | 134 | 3.5 | 5.2 | 0.00 | 0.00 | 0.00 | 44 | 1016.3 |
| 20260503232820 | 80 | 111 | 0.0 | 5.2 | 0.00 | 0.00 | 0.00 | 44 | 1016.3 |
| 20260503232537 | 79 | 146 | 0.0 | 8.7 | 0.00 | 0.00 | 0.00 | 44 | 1016.3 |
| 20260503231804 | 80 | 140 | 1.7 | 8.7 | 0.00 | 0.00 | 0.00 | 43 | 1016.3 |
| 20260503231305 | 80 | 185 | 2.6 | 5.2 | 0.00 | 0.00 | 0.00 | 41 | 1016.3 |
| 20260503230757 | 81 | 132 | 0.9 | 5.2 | 0.00 | 0.00 | 0.00 | 42 | 1016.3 |
| 20260503230249 | 81 | 121 | 1.7 | 5.2 | 0.00 | 0.00 | 0.00 | 42 | 1015.9 |
| 20260503225743 | 81 | 151 | 0.0 | 2.6 | 0.00 | 0.00 | 0.00 | 40 | 1016.3 |
| 20260503225241 | 81 | 117 | 1.7 | 2.6 | 0.00 | 0.00 | 0.00 | 37 | 1016.3 |
| 20260503224734 | 81 | 116 | 0.0 | 2.6 | 0.00 | 0.00 | 0.00 | 36 | 1016.6 |
| 20260503224227 | 82 | 169 | 0.0 | 0.9 | 0.00 | 0.00 | 0.00 | 35 | 1016.3 |
| 20260503223718 | 82 | 141 | 0.0 | 2.6 | 0.00 | 0.00 | 0.00 | 36 | 1016.6 |
| 20260503222709 | 81 | 124 | 0.0 | 2.6 | 0.00 | 0.00 | 0.00 | 37 | 1016.6 |
| 20260503222201 | 82 | 172 | 0.9 | 2.6 | 0.00 | 0.00 | 0.00 | 35 | 1016.6 |
| 20260503221654 | 83 | 116 | 1.7 | 1.7 | 0.00 | 0.00 | 0.00 | 35 | 1016.9 |
| 20260503221151 | 85 | 151 | 0.0 | 0.9 | 0.00 | 0.00 | 0.00 | 34 | 1016.9 |